Location: Czekan�w
(50.3488°N, 18.7344°E)
Time: 20:31:34
(UTC+00:00)

Cosmos 2016 Rocket - Pass Details

Date: 17 February 2020
Orbit: 948 x 999 km, 83.0° (Epoch: 07 April)

Event Time Altitude Azimuth Distance (km) Brightness Sun altitude
Rises 04:10:42 0° 351° (N) 3,662 6.9 -17.1°
Reaches altitude 10° 04:13:13 10° 354° (N) 2,718 6.3 -16.7°
Maximum altitude 04:19:26 69° 78° (ENE) 1,045 4.4 -15.7°
Drops below altitude 10° 04:25:41 10° 161° (SSE) 2,736 6.6 -14.7°
Sets 04:28:14 0° 164° (SSE) 3,687 7.3 -14.3°
